• In Russia
  • List of Countries
  • For 7 days
  • Water Temperature
  • Satellite Maps
  • Weather Map
  • Weather Widgets
  • user-avatar
    Login

    Hourly Weather Wien

    Today, 31 March, Friday

    Time Temperature Precipitation Wind Pressure Humidity
    00:00 +11°C° 0 mm 1 mps 750 mmHg 87%
    01:00 +9°C° 0 mm 2 mps 750 mmHg 88%
    02:00 +9°C° 0 mm 2 mps 750 mmHg 89%
    03:00 +9°C° 0 mm 2 mps 750 mmHg 89%
    04:00 +9°C° 0 mm 2 mps 750 mmHg 90%
    05:00 +9°C° 0 mm 2 mps 750 mmHg 89%
    06:00 +9°C° 0 mm 3 mps 750 mmHg 87%
    07:00 +10°C° 0 mm 3 mps 750 mmHg 86%
    08:00 +12°C° 0 mm 3 mps 749 mmHg 79%
    09:00 +14°C° 0 mm 4 mps 749 mmHg 72%
    10:00 +16°C° 0 mm 5 mps 749 mmHg 65%
    11:00 +17°C° 0 mm 5 mps 748 mmHg 62%
    12:00 +19°C° 0 mm 5 mps 748 mmHg 58%
    13:00 +20°C° 0 mm 6 mps 747 mmHg 55%
    14:00 +20°C° 0 mm 6 mps 747 mmHg 55%
    15:00 +20°C° 0 mm 6 mps 746 mmHg 56%
    16:00 +20°C° 0 mm 6 mps 746 mmHg 57%
    17:00 +17°C° 0 mm 5 mps 746 mmHg 64%
    18:00 +15°C° 0 mm 5 mps 745 mmHg 70%
    19:00 +13°C° 0 mm 4 mps 745 mmHg 77%
    20:00 +13°C° 0 mm 4 mps 745 mmHg 78%
    21:00 +12°C° 0 mm 4 mps 745 mmHg 80%
    22:00 +12°C° 0 mm 4 mps 745 mmHg 82%
    23:00 +11°C° 0 mm 4 mps 745 mmHg 82%

    Tomorrow, 1 April, Saturday

    Time Temperature Precipitation Wind Pressure Humidity
    00:00 +11°C° 0 mm 4 mps 745 mmHg 82%
    01:00 +10°C° 0 mm 4 mps 745 mmHg 82%
    02:00 +10°C° 0 mm 4 mps 744 mmHg 83%
    03:00 +10°C° 0 mm 4 mps 744 mmHg 84%
    04:00 +8°C° 0 mm 4 mps 744 mmHg 85%
    05:00 +10°C° 0 mm 4 mps 743 mmHg 85%
    06:00 +9°C° 0 mm 5 mps 743 mmHg 84%
    07:00 +9°C° 0 mm 5 mps 743 mmHg 83%
    08:00 +12°C° 0 mm 5 mps 743 mmHg 76%
    09:00 +14°C° 0 mm 6 mps 743 mmHg 69%
    10:00 +16°C° 0 mm 6 mps 743 mmHg 63%
    11:00 +17°C° 0 mm 7 mps 743 mmHg 59%
    12:00 +18°C° 0 mm 7 mps 742 mmHg 55%
    13:00 +20°C° 0 mm 7 mps 742 mmHg 52%
    14:00 +20°C° 0 mm 7 mps 742 mmHg 53%
    15:00 +20°C° 0 mm 6 mps 741 mmHg 53%
    16:00 +20°C° 0 mm 6 mps 741 mmHg 54%
    17:00 +19°C° 0 mm 5 mps 741 mmHg 61%
    18:00 +16°C° 0 mm 5 mps 741 mmHg 67%
    19:00 +14°C° 0 mm 5 mps 741 mmHg 74%
    20:00 +14°C° 0 mm 4 mps 741 mmHg 76%
    21:00 +13°C° 0 mm 4 mps 741 mmHg 79%
    22:00 +12°C° 0 mm 4 mps 742 mmHg 81%
    23:00 +12°C° 0 mm 4 mps 742 mmHg 82%

    Day after tomorrow, 2 April, Sunday

    Time Temperature Precipitation Wind Pressure Humidity
    00:00 +11°C° 0 mm 4 mps 742 mmHg 83%
    01:00 +10°C° 0 mm 3 mps 742 mmHg 84%
    02:00 +10°C° 0 mm 3 mps 742 mmHg 84%
    03:00 +9°C° 0 mm 3 mps 742 mmHg 84%
    04:00 +9°C° 0 mm 2 mps 742 mmHg 85%
    05:00 +10°C° 0 mm 2 mps 742 mmHg 82%
    06:00 +10°C° 0 mm 2 mps 743 mmHg 79%
    07:00 +12°C° 0 mm 2 mps 743 mmHg 76%
    08:00 +14°C° 0 mm 2 mps 743 mmHg 70%
    09:00 +16°C° 0 mm 2 mps 744 mmHg 63%
    10:00 +17°C° 0 mm 2 mps 744 mmHg 57%
    11:00 +18°C° 0 mm 2 mps 744 mmHg 54%
    12:00 +20°C° 0 mm 2 mps 744 mmHg 51%
    13:00 +21°C° 0 mm 3 mps 744 mmHg 48%
    14:00 +21°C° 0 mm 3 mps 744 mmHg 48%
    15:00 +21°C° 0 mm 2 mps 744 mmHg 48%
    16:00 +21°C° 0 mm 2 mps 743 mmHg 48%
    17:00 +18°C° 0 mm 2 mps 744 mmHg 57%
    18:00 +16°C° 0 mm 2 mps 744 mmHg 66%
    19:00 +14°C° 0 mm 2 mps 744 mmHg 75%
    20:00 +13°C° 0 mm 2 mps 744 mmHg 78%
    21:00 +13°C° 0 mm 1 mps 745 mmHg 80%
    22:00 +12°C° 0 mm 1 mps 745 mmHg 82%
    23:00 +12°C° 0 mm 2 mps 745 mmHg 84%

    3 April, Monday

    Time Temperature Precipitation Wind Pressure Humidity
    00:00 +12°C° 0 mm 2 mps 745 mmHg 86%
    01:00 +10°C° 0 mm 2 mps 745 mmHg 87%
    02:00 +10°C° 0 mm 2 mps 745 mmHg 89%
    03:00 +10°C° 0 mm 3 mps 746 mmHg 91%
    04:00 +10°C° 0 mm 3 mps 746 mmHg 92%
    05:00 +10°C° 0 mm 3 mps 746 mmHg 91%
    06:00 +11°C° 0 mm 4 mps 746 mmHg 89%
    07:00 +11°C° 0 mm 4 mps 746 mmHg 87%
    08:00 +12°C° 0 mm 4 mps 747 mmHg 82%
    09:00 +13°C° 0 mm 5 mps 747 mmHg 77%
    10:00 +14°C° 0 mm 5 mps 747 mmHg 72%
    11:00 +15°C° 0.1 mm 5 mps 747 mmHg 69%
    12:00 +15°C° 0.1 mm 5 mps 746 mmHg 65%
    13:00 +16°C° 0.1 mm 5 mps 746 mmHg 62%
    14:00 +16°C° 0.1 mm 5 mps 746 mmHg 61%
    15:00 +16°C° 0.1 mm 5 mps 746 mmHg 60%
    16:00 +16°C° 0.1 mm 5 mps 746 mmHg 60%
    17:00 +14°C° 0.1 mm 4 mps 746 mmHg 65%
    18:00 +13°C° 0.1 mm 4 mps 746 mmHg 71%
    19:00 +11°C° 0.1 mm 4 mps 746 mmHg 77%
    20:00 +10°C° 0 mm 4 mps 746 mmHg 78%
    21:00 +8°C° 0 mm 4 mps 746 mmHg 79%
    22:00 +7°C° 0 mm 4 mps 747 mmHg 81%
    23:00 +7°C° 0 mm 4 mps 747 mmHg 81%

    4 April, Tuesday

    Time Temperature Precipitation Wind Pressure Humidity
    00:00 +6°C° 0 mm 4 mps 747 mmHg 82%
    01:00 +5°C° 0 mm 3 mps 747 mmHg 83%
    02:00 +5°C° 0 mm 4 mps 747 mmHg 83%
    03:00 +5°C° 0 mm 4 mps 747 mmHg 84%
    04:00 +4°C° 0 mm 4 mps 746 mmHg 84%
    05:00 +4°C° 0 mm 4 mps 746 mmHg 82%
    06:00 +5°C° 0 mm 4 mps 747 mmHg 81%
    07:00 +5°C° 0 mm 5 mps 747 mmHg 80%
    08:00 +6°C° 0.1 mm 5 mps 747 mmHg 76%
    09:00 +7°C° 0.1 mm 5 mps 747 mmHg 72%
    10:00 +9°C° 0.1 mm 6 mps 747 mmHg 69%
    11:00 +9°C° 0.1 mm 6 mps 747 mmHg 65%
    12:00 +10°C° 0.1 mm 6 mps 746 mmHg 61%
    13:00 +11°C° 0.1 mm 6 mps 746 mmHg 57%
    14:00 +11°C° 0.1 mm 6 mps 746 mmHg 57%
    15:00 +11°C° 0.1 mm 6 mps 746 mmHg 57%
    16:00 +11°C° 0.1 mm 6 mps 746 mmHg 57%
    17:00 +9°C° 0 mm 5 mps 746 mmHg 63%
    18:00 +8°C° 0 mm 4 mps 747 mmHg 69%
    19:00 +7°C° 0 mm 3 mps 747 mmHg 76%
    20:00 +7°C° 0 mm 3 mps 747 mmHg 77%
    21:00 +5°C° 0 mm 3 mps 748 mmHg 79%
    22:00 +5°C° 0 mm 3 mps 748 mmHg 80%
    23:00 +4°C° 0 mm 3 mps 748 mmHg 82%

    5 April, Wednesday

    Time Temperature Precipitation Wind Pressure Humidity
    00:00 +4°C° 0 mm 3 mps 748 mmHg 83%
    01:00 +3°C° 0 mm 3 mps 748 mmHg 85%
    02:00 +3°C° 0 mm 4 mps 748 mmHg 85%
    03:00 +3°C° 0 mm 4 mps 748 mmHg 85%
    04:00 +3°C° 0 mm 4 mps 748 mmHg 86%
    05:00 +2°C° 0 mm 5 mps 748 mmHg 83%
    06:00 +3°C° 0 mm 5 mps 748 mmHg 80%
    07:00 +3°C° 0 mm 5 mps 748 mmHg 77%
    08:00 +5°C° 0 mm 6 mps 748 mmHg 70%
    09:00 +7°C° 0 mm 6 mps 748 mmHg 64%
    10:00 +9°C° 0 mm 6 mps 748 mmHg 58%
    11:00 +10°C° 0 mm 6 mps 747 mmHg 54%
    12:00 +11°C° 0 mm 6 mps 747 mmHg 51%
    13:00 +14°C° 0 mm 6 mps 746 mmHg 47%
    14:00 +14°C° 0 mm 6 mps 746 mmHg 49%
    15:00 +14°C° 0 mm 6 mps 746 mmHg 50%
    16:00 +14°C° 0 mm 6 mps 745 mmHg 51%
    17:00 +12°C° 0 mm 5 mps 745 mmHg 59%
    18:00 +10°C° 0 mm 5 mps 746 mmHg 66%
    19:00 +8°C° 0 mm 4 mps 746 mmHg 74%
    20:00 +8°C° 0.3 mm 4 mps 746 mmHg 77%
    21:00 +7°C° 0.3 mm 4 mps 746 mmHg 81%
    22:00 +6°C° 0.3 mm 4 mps 746 mmHg 84%
    23:00 +6°C° 0.2 mm 4 mps 746 mmHg 84%
    Show more